CW8593 Weather Reports


Display with metric or nautical units.
time (UTC)temp
F
wind
direction
speed
MPH
gust
MPH
rain 1hr
in
rain 24hr
in
rain mn
in
humidity
%
barometer
mb
20160505233300 58 74 5.0 12.0 0.00 0.00 0.00 80 1015.6
20160505232810 58 46 3.0 12.0 0.00 0.00 0.00 80 1015.6
20160505230310 57 65 5.0 12.0 0.00 0.00 0.00 79 1015.6
20160505225759 57 50 6.0 15.0 0.00 0.00 0.00 79 1015.6
20160505224759 58 65 7.0 14.0 0.00 0.00 0.00 79 1015.7
20160505224300 58 57 6.0 12.0 0.00 0.00 0.00 80 1015.7
20160505223759 57 56 7.0 15.0 0.00 0.00 0.00 79 1015.7
20160505223259 58 41 7.0 13.0 0.00 0.00 0.00 79 1015.7
20160505222800 58 42 5.0 13.0 0.00 0.00 0.00 79 1015.7
20160505221259 58 61 4.0 10.0 0.00 0.00 0.00 79 1015.7
20160505220300 58 66 7.0 16.0 0.00 0.00 0.00 79 1015.7
20160505214810 58 50 12.0 17.0 0.00 0.00 0.00 79 1015.5
20160505213759 58 83 8.0 14.0 0.00 0.00 0.00 79 1015.5
20160505212808 58 45 8.0 14.0 0.00 0.00 0.00 78 1015.5
20160505212300 58 64 5.0 14.0 0.00 0.00 0.00 78 1015.5
20160505211759 58 47 4.0 8.0 0.00 0.00 0.00 79 1015.5
20160505210259 59 34 5.0 15.0 0.00 0.00 0.00 80 1015.5
20160505205800 59 41 9.0 16.0 0.00 0.00 0.00 79 1015.5
20160505204804 59 55 6.0 15.0 0.00 0.00 0.00 79 1015.5
20160505202811 59 57 10.0 16.0 0.00 0.00 0.00 79 1015.5
20160505202259 59 46 9.0 13.0 0.00 0.00 0.00 79 1015.5
20160505201259 59 42 6.0 17.0 0.00 0.00 0.00 79 1015.5
20160505195759 59 41 7.0 15.0 0.00 0.00 0.00 79 1015.4
20160505194759 59 49 6.0 14.0 0.00 0.00 0.00 80 1015.4
20160505194259 59 47 7.0 14.0 0.00 0.00 0.00 79 1014.9
20160505193809 59 66 5.0 13.0 0.00 0.00 0.00 79 1014.9
20160505191759 59 55 5.0 18.0 0.00 0.00 0.00 80 1014.9
20160505190759 59 58 7.0 18.0 0.00 0.00 0.00 80 1014.9
20160505185811 60 49 6.0 14.0 0.00 0.00 0.00 80 1014.9
20160505185259 60 42 9.0 14.0 0.00 0.00 0.00 80 1014.9
20160505182259 60 81 5.0 9.0 0.00 0.00 0.00 79 1014.8
20160505181810 60 47 1.0 14.0 0.00 0.00 0.00 79 1014.8
20160505180800 60 55 3.0 9.0 0.00 0.00 0.00 78 1014.8
20160505175800 60 74 3.0 14.0 0.00 0.00 0.00 77 1014.8
20160505175258 60 68 6.0 10.0 0.00 0.00 0.00 77 1014.7
20160505174759 60 79 9.0 14.0 0.00 0.00 0.00 76 1014.7
20160505173800 61 41 6.0 15.0 0.00 0.00 0.00 76 1014.7
20160505172311 61 78 5.0 9.0 0.00 0.00 0.00 75 1014.5
20160505171301 61 68 6.0 13.0 0.00 0.00 0.00 75 1014.5
20160505163759 62 81 5.0 12.0 0.00 0.00 0.00 70 1014.4
20160505163310 62 80 3.0 12.0 0.00 0.00 0.00 70 1014.3
20160505161759 63 85 6.0 17.0 0.00 0.00 0.00 65 1014.3
20160505160759 63 73 7.0 15.0 0.00 0.00 0.00 62 1014.3
20160505153758 63 72 7.0 15.0 0.00 0.00 0.00 63 1014.2
20160505150809 64 94 7.0 14.0 0.00 0.00 0.00 59 1014.4
20160505145259 64 87 5.0 10.0 0.00 0.00 0.00 59 1014.4
20160505143800 65 114 3.0 12.0 0.00 0.00 0.00 57 1014.4
20160505141810 65 64 5.0 12.0 0.00 0.00 0.00 54 1014.5
20160505141309 65 96 6.0 12.0 0.00 0.00 0.00 54 1014.4
20160505140759 65 95 6.0 12.0 0.00 0.00 0.00 55 1014.4
20160505140259 65 108 7.0 14.0 0.00 0.00 0.00 56 1014.4
20160505133759 65 82 6.0 12.0 0.00 0.00 0.00 55 1014.4
20160505130759 66 69 7.0 14.0 0.00 0.00 0.00 53 1014.4
20160505125759 65 54 8.0 15.0 0.00 0.00 0.00 55 1014.4
20160505123259 66 81 8.0 15.0 0.00 0.00 0.00 53 1014.4
20160505121759 66 71 7.0 14.0 0.00 0.00 0.00 50 1014.7
20160505115809 66 106 9.0 14.0 0.00 0.00 0.00 53 1014.7
20160505113759 66 114 7.0 16.0 0.00 0.00 0.00 53 1014.7
20160505113305 66 92 5.0 12.0 0.00 0.00 0.00 53 1015.0
20160505112306 66 120 6.0 10.0 0.00 0.00 0.00 52 1015.0
20160505111808 67 108 8.0 12.0 0.00 0.00 0.00 49 1015.0
20160505111258 66 78 5.0 14.0 0.00 0.00 0.00 49 1015.0
20160505105758 66 111 8.0 14.0 0.00 0.00 0.00 47 1015.0
20160505105259 66 91 9.0 15.0 0.00 0.00 0.00 47 1015.0
20160505104758 67 68 9.0 14.0 0.00 0.00 0.00 46 1015.0
20160505103759 68 92 7.0 12.0 0.00 0.00 0.00 46 1015.0
20160505102258 67 89 9.0 14.0 0.00 0.00 0.00 46 1015.1
20160505101759 67 103 5.0 12.0 0.00 0.00 0.00 46 1015.0
20160505101259 67 91 9.0 13.0 0.00 0.00 0.00 44 1015.0
20160505095758 67 98 7.0 13.0 0.00 0.00 0.00 44 1014.9
20160505094758 67 53 6.0 10.0 0.00 0.00 0.00 45 1015.0
20160505094258 67 71 7.0 12.0 0.00 0.00 0.00 44 1014.9
20160505093258 67 130 7.0 14.0 0.00 0.00 0.00 45 1014.9
20160505092758 67 61 2.0 9.0 0.00 0.00 0.00 46 1014.9
20160505092258 66 55 3.0 12.0 0.00 0.00 0.00 46 1014.9
20160505091759 66 103 7.0 12.0 0.00 0.00 0.00 46 1014.7
20160505091258 66 83 6.0 12.0 0.00 0.00 0.00 47 1014.7
20160505090758 67 75 5.0 12.0 0.00 0.00 0.00 52 1014.7
20160505090259 66 65 1.0 5.0 0.00 0.00 0.00 55 1014.6
20160505085758 66 92 4.0 8.0 0.00 0.00 0.00 55 1014.7
20160505084758 65 92 4.0 8.0 0.00 0.00 0.00 57 1014.7
20160505084258 65 85 6.0 12.0 0.00 0.00 0.00 56 1014.7
20160505083258 65 56 6.0 9.0 0.00 0.00 0.00 56 1014.7
20160505082258 65 102 2.0 3.0 0.00 0.00 0.00 58 1014.8
20160505081758 65 65 2.0 7.0 0.00 0.00 0.00 58 1014.8
20160505081259 64 35 4.0 7.0 0.00 0.00 0.00 60 1014.8
20160505075758 64 93 5.0 8.0 0.00 0.00 0.00 59 1014.8
20160505075258 64 95 2.0 7.0 0.00 0.00 0.00 58 1014.9
20160505074258 64 111 2.0 7.0 0.00 0.00 0.00 58 1014.9
20160505073758 64 81 2.0 7.0 0.00 0.00 0.00 58 1014.9
20160505072758 64 66 1.0 3.0 0.00 0.00 0.00 58 1015.1
20160505071759 63 58 3.0 7.0 0.00 0.00 0.00 58 1015.1
20160505071259 63 29 3.0 6.0 0.00 0.00 0.00 58 1015.3
20160505070758 64 52 3.0 7.0 0.00 0.00 0.00 58 1015.2
20160505070258 64 59 2.0 6.0 0.00 0.00 0.00 58 1015.2
20160505065758 64 45 2.0 5.0 0.00 0.00 0.00 58 1015.2
20160505064758 63 33 2.0 6.0 0.00 0.00 0.00 59 1015.3
20160505064258 62 346 1.0 3.0 0.00 0.00 0.00 61 1015.3
20160505062758 61 344 1.0 3.0 0.00 0.00 0.00 62 1015.4
20160505061758 60 306 1.0 5.0 0.00 0.00 0.00 63 1015.4
20160505060758 59 313 4.0 6.0 0.00 0.00 0.00 63 1015.4
20160505060258 59 349 2.0 6.0 0.00 0.00 0.00 65 1015.4
20160505055259 58 323 1.0 5.0 0.00 0.00 0.00 68 1015.3
20160505054758 58 352 3.0 9.0 0.00 0.00 0.00 69 1015.3
20160505053758 56 347 1.0 3.0 0.00 0.00 0.00 69 1015.3
20160505053258 56 347 2.0 8.0 0.00 0.00 0.00 69 1015.3
20160505052758 55 323 5.0 8.0 0.00 0.00 0.00 68 1015.3
20160505052258 54 322 5.0 7.0 0.00 0.00 0.00 68 1015.2
20160505051758 53 7 3.0 6.0 0.00 0.00 0.00 68 1015.2
20160505051258 53 168 2.0 5.0 0.00 0.00 0.00 69 1015.2
20160505050758 52 205 0.0 1.0 0.00 0.00 0.00 70 1015.3
20160505045758 52 205 0.0 0.0 0.00 0.00 0.00 70 1015.2
20160505045258 52 205 0.0 0.0 0.00 0.00 0.00 70 1015.2
20160505044758 53 205 0.0 3.0 0.00 0.00 0.00 69 1015.1
20160505043758 52 205 0.0 2.0 0.00 0.00 0.00 68 1015.1
20160505040758 53 205 0.0 0.0 0.00 0.00 0.00 68 1015.1
20160505034758 52 205 2.0 3.0 0.00 0.00 0.00 75 1015.3
20160505033758 52 205 0.0 0.0 0.00 0.00 0.00 76 1015.2
20160505033259 52 205 0.0 1.0 0.00 0.00 0.00 77 1015.2
20160505032758 52 205 0.0 1.0 0.00 0.00 0.00 78 1015.3
20160505032258 52 205 0.0 2.0 0.00 0.00 0.00 79 1015.3
20160505031758 52 205 0.0 0.0 0.00 0.00 0.00 80 1015.6
20160505030758 52 205 0.0 0.0 0.00 0.00 0.00 80 1015.6
20160505030258 52 205 0.0 0.0 0.00 0.00 0.00 80 1015.6
20160505024758 53 205 0.0 0.0 0.00 0.00 0.00 80 1015.8
20160505024258 53 205 0.0 1.0 0.00 0.00 0.00 80 1015.8
20160505020758 53 205 0.0 2.0 0.00 0.00 0.00 79 1015.9
20160505015758 53 205 1.0 3.0 0.00 0.00 0.00 79 1015.9
20160505015258 53 205 1.0 3.0 0.00 0.00 0.00 80 1015.8
20160505014258 53 205 0.0 0.0 0.00 0.00 0.00 80 1015.9
20160505013258 53 205 0.0 2.0 0.00 0.00 0.00 79 1016.2
20160505012758 53 205 1.0 3.0 0.00 0.00 0.00 79 1016.2
20160505011258 54 205 0.0 0.0 0.00 0.00 0.00 79 1016.2
20160505010258 54 205 0.0 2.0 0.00 0.00 0.00 79 1016.3
20160505005758 54 205 0.0 1.0 0.00 0.00 0.00 79 1016.5
20160505005259 55 205 0.0 0.0 0.00 0.00 0.00 80 1016.5
20160505004758 55 205 0.0 2.0 0.00 0.00 0.00 80 1016.6
20160505004258 55 205 0.0 2.0 0.00 0.00 0.00 80 1017.0
20160505003758 55 205 0.0 2.0 0.00 0.00 0.00 80 1017.0
20160505003258 55 205 0.0 1.0 0.00 0.00 0.00 80 1017.4
20160505001758 55 205 0.0 0.0 0.00 0.00 0.00 80 1017.4
20160505001258 55 205 0.0 0.0 0.00 0.00 0.00 80 1017.5
20160505000258 55 205 0.0 2.0 0.00 0.00 0.00 81 1017.8
20160504235258 55 205 0.0 0.0 0.00 0.00 0.00 81 1017.8